Content
SEND FEEDBACK

Daily
Averages
Monthly
Summary
Canada

VANCOUVER, BRITISH COLUMBIA


Home > North America > Canada > British Columbia
Elevation: 7 feet     Latitude: 49 11N     Longitude: 123 10W

WEATHER
 
SELECT A DAY
Number of Records: 249,649;   Date Range: 5/15/97 - 8/26/14
 
SHARE

PRINT THIS DATA

[ ← Previous Day ]
WEATHER ALMANAC - MARCH 22, 2013
[ Next Day → ]
[ °C ]   °F
Weather ElementAverageHighLow
Temperature38.8 °F42.8 °F (2:55 pm)32 °F (10:35 pm)
Dewpoint30.5 °F32 °F (12:35 am)26.6 °F (9:55 am)
Humidity72.8 %100 % (10:35 pm)61 % (9:55 am)
Barometer30.28 in30.36 in (9:35 pm)30.18 in (12:35 am)
Wind Speed3 mph9.2 mph (1:15 pm)
Weather ElementAverage
Visibility10 mi
Wind DirectionSSE (158.3 °)

Weather ElementTotal
Precipitation---
Heating Degree Days27.6 (Base 65)
Averaged from 69 records on March 22, 2013
WEATHER CONDITIONS BREAKOUT
WIND DIRECTION BREAKOUT
WEATHER BY HOUR - MARCH 22, 2013
[ °C ]   °F
Local TimeTemperatureDewpointHumidityBarometerVisibilityWind DirectionWind SpeedGust SpeedPrecipitationEventsConditions
12:35 AM39.2 °F32.0 °F75 %30.18 in10.0 miWest (280°)3.5 mphPartly Cloudy
12:55 AM39.2 °F32.0 °F75 %30.19 in10.0 miCalmMostly Cloudy
1:15 AM39.2 °F32.0 °F75 %30.19 in10.0 miCalmMostly Cloudy
1:35 AM39.2 °F32.0 °F75 %30.19 in10.0 miCalmOvercast
1:55 AM39.2 °F32.0 °F75 %30.19 in10.0 miNW (310°)6.9 mphMostly Cloudy
2:15 AM39.2 °F32.0 °F75 %30.19 in10.0 miNW (320°)8.1 mphPartly Cloudy
2:35 AM39.2 °F32.0 °F75 %30.20 in10.0 miWNW (290°)4.6 mphPartly Cloudy
2:55 AM39.2 °F30.2 °F70 %30.20 in10.0 miCalmPartly Cloudy
3:15 AM39.2 °F32.0 °F75 %30.20 in10.0 miCalmMostly Cloudy
3:35 AM39.2 °F32.0 °F75 %30.21 in10.0 miCalmMostly Cloudy
3:55 AM39.2 °F30.2 °F70 %30.21 in10.0 miWSW (250°)4.6 mphMostly Cloudy
4:15 AM39.2 °F30.2 °F70 %30.21 in10.0 miWNW (290°)3.5 mphScattered Clouds
4:35 AM37.4 °F30.2 °F75 %30.21 in10.0 miWest (260°)4.6 mphPartly Cloudy
4:55 AM37.4 °F30.2 °F75 %30.21 in10.0 miCalmPartly Cloudy
5:15 AM37.4 °F30.2 °F75 %30.22 in10.0 miWest (260°)3.5 mphPartly Cloudy
5:35 AM37.4 °F28.4 °F70 %30.22 in10.0 miCalmClear
5:55 AM37.4 °F28.4 °F70 %30.22 in10.0 miCalmClear
6:15 AM37.4 °F28.4 °F70 %30.23 in10.0 miCalmClear
6:35 AM37.4 °F28.4 °F70 %30.23 in10.0 miCalmClear
6:55 AM35.6 °F28.4 °F75 %30.23 in10.0 miSW (230°)3.5 mphClear
7:15 AM35.6 °F28.4 °F75 %30.23 in10.0 miWest (260°)4.6 mphClear
7:35 AM35.6 °F28.4 °F75 %30.24 in10.0 miCalmClear
7:55 AM33.8 °F28.4 °F81 %30.24 in10.0 miCalmClear
8:15 AM39.2 °F28.4 °F65 %30.25 in10.0 miCalmMostly Cloudy
8:35 AM39.2 °F28.4 °F65 %30.25 in10.0 miWNW (290°)4.6 mphOvercast
8:55 AM39.2 °F28.4 °F65 %30.25 in10.0 miCalmOvercast
9:15 AM39.2 °F28.4 °F65 %30.26 in10.0 miWest (260°)4.6 mphOvercast
9:35 AM39.2 °F28.4 °F65 %30.26 in10.0 miWest (280°)4.6 mphOvercast
9:55 AM39.2 °F26.6 °F61 %30.27 in10.0 miCalmMostly Cloudy
10:15 AM41.0 °F28.4 °F61 %30.28 in10.0 miNW (320°)6.9 mphMostly Cloudy
10:35 AM41.0 °F28.4 °F61 %30.28 in10.0 miWNW (290°)6.9 mphMostly Cloudy
11:15 AM41.0 °F28.4 °F61 %30.28 in10.0 miWest (260°)4.6 mphScattered Clouds
11:35 AM41.0 °F28.4 °F61 %30.29 in10.0 miNNW (330°)6.9 mphScattered Clouds
11:55 AM41.0 °F28.4 °F61 %30.29 in10.0 miNW (320°)4.6 mphScattered Clouds
12:15 PM41.0 °F28.4 °F61 %30.29 in10.0 miNNW (330°)5.8 mphMostly Cloudy
12:35 PM41.0 °F30.2 °F65 %30.30 in10.0 miNNW (330°)5.8 mphRainLight Rain
12:55 PM41.0 °F30.2 °F65 %30.30 in10.0 miNorth (350°)5.8 mphMostly Cloudy
1:15 PM41.0 °F30.2 °F65 %30.30 in10.0 miNW (320°)9.2 mphMostly Cloudy
1:35 PM41.0 °F32.0 °F70 %30.31 in10.0 miNW (320°)6.9 mphMostly Cloudy
1:55 PM41.0 °F32.0 °F70 %30.31 in10.0 miNNW (330°)6.9 mphMostly Cloudy
2:15 PM41.0 °F32.0 °F70 %30.31 in10.0 miNNW (340°)8.1 mphMostly Cloudy
2:35 PM41.0 °F32.0 °F70 %30.31 in10.0 miNNW (340°)6.9 mphMostly Cloudy
2:55 PM42.8 °F32.0 °F66 %30.31 in10.0 miNorth (350°)5.8 mphMostly Cloudy
3:15 PM42.8 °F32.0 °F66 %30.32 in10.0 miNNW (340°)5.8 mphPartly Cloudy
3:35 PM42.8 °F30.2 °F61 %30.32 in10.0 miNorth (350°)5.8 mphClear
3:55 PM42.8 °F32.0 °F66 %30.31 in10.0 miNorth (350°)5.8 mphClear
4:15 PM42.8 °F32.0 °F66 %30.32 in10.0 miNorth (360°)5.8 mphClear
4:35 PM42.8 °F32.0 °F66 %30.32 in10.0 miNorth (350°)6.9 mphClear
4:55 PM42.8 °F32.0 °F66 %30.32 in10.0 miNorth (350°)5.8 mphClear
5:15 PM42.8 °F30.2 °F61 %30.33 in10.0 miNorth (350°)5.8 mphClear
5:35 PM42.8 °F30.2 °F61 %30.33 in10.0 miNorth (360°)4.6 mphClear
5:55 PM42.8 °F30.2 °F61 %30.33 in10.0 miCalmClear
6:15 PM42.8 °F30.2 °F61 %30.32 in10.0 miCalmClear
6:35 PM41.0 °F30.2 °F65 %30.32 in10.0 miCalmClear
6:55 PM41.0 °F32.0 °F70 %30.32 in10.0 miCalmClear
7:15 PM39.2 °F32.0 °F75 %30.32 in10.0 miCalmClear
7:35 PM37.4 °F32.0 °F81 %30.32 in8.0 miCalmClear
7:55 PM37.4 °F32.0 °F81 %30.33 in10.0 miNorthClear
8:15 PM35.6 °F32.0 °F87 %30.33 in10.0 miCalmClear
8:35 PM35.6 °F32.0 °F87 %30.34 in10.0 miNorthClear
8:55 PM35.6 °F32.0 °F87 %30.34 in10.0 miCalmClear
9:15 PM33.8 °F32.0 °F93 %30.35 in10.0 miCalmClear
9:35 PM33.8 °F32.0 °F93 %30.36 in10.0 miCalmClear
10:15 PM33.8 °F32.0 °F93 %30.35 in10.0 miCalmClear
10:35 PM32.0 °F32.0 °F100 %30.36 in10.0 miCalmClear
10:55 PM32.0 °F32.0 °F100 %30.35 in10.0 miCalmClear
11:15 PM32.0 °F30.2 °F93 %30.36 in10.0 miCalmClear
11:35 PM32.0 °F30.2 °F93 %30.36 in10.0 miCalmClear
11:55 PM32.0 °F32.0 °F100 %30.36 in10.0 miCalmClear
Hourly data recorded from CZBB, located miles away from Vancouver, British Columbia







STORIES FROM OUR PARTNERS